FW9006 Weather Reports


time (UTC)temp
F
wind
direction
speed
knots
gust
knots
rain 1hr
in
rain 24hr
in
rain mn
in
humidity
%
barometer
mb
20260509091523 52 193 0.9 4.3 0.00 0.00 0.00 78 1002.6
20260509090524 52 185 1.7 6.1 0.00 0.00 0.00 77 1002.8
20260509085522 52 152 0.9 6.1 0.00 0.00 0.00 76 1003.0
20260509084523 53 199 0.9 4.3 0.00 0.00 0.00 75 1002.9
20260509083523 53 213 0.9 4.3 0.00 0.00 0.00 75 1003.1
20260509082523 53 207 1.7 4.3 0.00 0.00 0.00 74 1003.5
20260509081543 53 220 1.7 4.3 0.00 0.00 0.00 74 1003.5
20260509080543 52 210 0.9 3.5 0.00 0.00 0.00 72 1003.6
20260509075523 52 180 0.9 3.5 0.00 0.00 0.00 71 1003.7
20260509074524 52 186 1.7 5.2 0.00 0.00 0.00 69 1003.8
20260509073522 52 189 0.9 4.3 0.00 0.00 0.00 66 1003.9
20260509072524 53 223 1.7 7.0 0.00 0.00 0.00 64 1004.0
20260509071545 53 215 1.7 6.1 0.00 0.00 0.00 62 1004.1
20260509070523 53 222 2.6 7.8 0.00 0.00 0.00 61 1004.2
20260509065525 54 218 1.7 7.0 0.00 0.00 0.00 58 1004.1
20260509064524 53 205 3.5 7.0 0.00 0.00 0.00 54 1004.3
20260509063524 53 198 2.6 7.0 0.00 0.00 0.00 49 1004.5
20260509062523 53 203 1.7 6.1 0.00 0.00 0.00 43 1004.6
20260509061522 52 221 0.9 2.6 0.00 0.00 0.00 38 1004.6
20260509060523 52 195 0.9 4.3 0.00 0.00 0.00 37 1004.7
20260509055543 53 177 0.9 3.5 0.00 0.00 0.00 36 1004.9
20260509054542 53 217 0.9 3.5 0.00 0.00 0.00 35 1005.0
20260509053543 53 209 0.9 3.5 0.00 0.00 0.00 35 1005.0
20260509052523 53 227 1.7 5.2 0.00 0.00 0.00 34 1004.9
20260509051523 53 195 1.7 6.1 0.00 0.00 0.00 34 1004.9
20260509050523 52 196 0.9 3.5 0.00 0.00 0.00 35 1005.0
20260509045522 51 205 0.9 2.6 0.00 0.00 0.00 36 1005.1
20260509044523 51 219 0.9 2.6 0.00 0.00 0.00 37 1005.1
20260509043523 51 118 0.0 0.9 0.00 0.00 0.00 36 1005.2
20260509042522 51 118 0.0 0.9 0.00 0.00 0.00 36 1005.3
20260509041523 50 118 0.0 0.9 0.00 0.00 0.00 37 1005.4
20260509040524 50 118 0.0 0.9 0.00 0.00 0.00 36 1005.5
20260509035523 50 0.0 0.0 0.00 0.00 0.00 37 1005.7
20260509034523 50 0.0 0.0 0.00 0.00 0.00 37 1005.7
20260509033543 50 0.0 0.0 0.00 0.00 0.00 37 1005.8
20260509032523 51 117 0.0 0.9 0.00 0.00 0.00 37 1005.9
20260509031523 51 117 0.0 0.9 0.00 0.00 0.00 39 1006.0
20260509030522 51 0.0 0.0 0.00 0.00 0.00 38 1006.1
20260509025523 52 0.0 0.9 0.00 0.00 0.00 38 1006.3
20260509024523 52 0.0 0.9 0.00 0.00 0.00 38 1006.4
20260509023523 52 0.0 0.0 0.00 0.00 0.00 37 1006.5
20260509022543 53 117 0.0 0.9 0.00 0.00 0.00 37 1006.5
20260509021543 53 0.0 0.0 0.00 0.00 0.00 37 1006.4
20260509020523 53 0.0 0.0 0.00 0.00 0.00 39 1006.3
20260509015522 54 117 0.0 0.9 0.00 0.00 0.00 37 1006.2
20260509014523 55 117 0.0 0.9 0.00 0.00 0.00 36 1006.2
20260509013522 55 0.0 0.0 0.00 0.00 0.00 34 1006.2
20260509012523 56 0.0 0.9 0.00 0.00 0.00 33 1006.2
20260509011523 57 0.0 0.9 0.00 0.00 0.00 32 1006.2
20260509010522 58 0.0 0.9 0.00 0.00 0.00 31 1006.2
20260509005523 59 200 0.0 1.7 0.00 0.00 0.00 29 1006.2
20260509004523 59 224 0.9 3.5 0.00 0.00 0.00 28 1006.3
20260509003522 60 223 0.9 3.5 0.00 0.00 0.00 27 1006.3
20260509002523 60 253 0.9 3.5 0.00 0.00 0.00 27 1006.4
20260509001523 61 237 0.9 5.2 0.00 0.00 0.00 27 1006.5
20260509000603 61 234 2.6 6.1 0.00 0.00 0.00 26 1006.6
20260508235544 62 239 0.9 6.1 0.00 0.00 0.00 25 1006.6
20260508234523 62 239 0.9 5.2 0.00 0.00 0.00 27 1006.8
20260508233523 63 249 2.6 7.8 0.00 0.00 0.00 27 1006.9
20260508232523 63 309 1.7 5.2 0.00 0.00 0.00 27 1006.9
20260508231522 62 288 1.7 5.2 0.00 0.00 0.00 26 1006.9
20260508230543 63 234 2.6 7.8 0.00 0.00 0.00 26 1006.9
20260508225543 63 285 0.9 4.3 0.00 0.00 0.00 27 1006.8
20260508224524 63 319 0.9 2.6 0.00 0.00 0.00 27 1006.9
20260508223522 63 286 2.6 5.2 0.00 0.00 0.00 27 1006.9
20260508222523 63 244 2.6 7.0 0.00 0.00 0.00 26 1006.9
20260508221523 63 283 1.7 5.2 0.00 0.00 0.00 27 1007.0
20260508220524 64 292 2.6 6.1 0.00 0.00 0.00 26 1007.0
20260508215523 64 268 1.7 4.3 0.00 0.00 0.00 26 1007.0
20260508214524 64 327 3.5 7.0 0.00 0.00 0.00 26 1007.0
20260508213522 65 290 1.7 6.1 0.00 0.00 0.00 26 1007.0
20260508212523 65 254 2.6 6.1 0.00 0.00 0.00 26 1007.1
20260508211523 64 297 1.7 7.0 0.00 0.00 0.00 25 1007.1
20260508210523 64 243 0.9 6.1 0.00 0.00 0.00 26 1007.2
20260508205522 64 317 3.5 10.4 0.00 0.00 0.00 26 1007.3
20260508204523 64 300 3.5 7.0 0.00 0.00 0.00 25 1007.4
20260508203523 64 347 0.9 9.6 0.00 0.00 0.00 26 1007.5
20260508202543 65 233 2.6 8.7 0.00 0.00 0.00 25 1007.6
20260508201522 64 282 2.6 7.0 0.00 0.00 0.00 26 1007.7
20260508200542 64 324 2.6 7.8 0.00 0.00 0.00 25 1007.8
20260508195523 63 274 1.7 7.0 0.00 0.00 0.00 25 1008.0
20260508194524 63 319 3.5 6.1 0.00 0.00 0.00 26 1008.0
20260508193523 63 306 2.6 7.8 0.00 0.00 0.00 26 1008.2
20260508192523 63 291 1.7 6.1 0.00 0.00 0.00 25 1008.2
20260508191524 62 318 3.5 7.0 0.00 0.00 0.00 27 1008.2
20260508190523 63 293 2.6 7.8 0.00 0.00 0.00 27 1008.3
20260508185542 62 314 2.6 6.1 0.00 0.00 0.00 26 1008.3
20260508184523 62 284 1.7 7.8 0.00 0.00 0.00 28 1008.4
20260508183523 63 326 3.5 7.8 0.00 0.00 0.00 26 1008.5
20260508182523 64 261 1.7 6.1 0.00 0.00 0.00 28 1008.6
20260508181523 63 282 1.7 7.8 0.00 0.00 0.00 29 1008.7
20260508180543 63 219 3.5 7.0 0.00 0.00 0.00 28 1008.8
20260508175544 61 268 2.6 5.2 0.00 0.00 0.00 30 1008.9
20260508174522 62 329 2.6 7.8 0.00 0.00 0.00 30 1009.1
20260508173523 62 304 1.7 7.8 0.00 0.00 0.00 30 1009.2
20260508172523 62 241 1.7 6.1 0.00 0.00 0.00 31 1009.3
20260508171523 61 324 2.6 6.1 0.00 0.00 0.00 31 1009.5
20260508170543 62 296 1.7 8.7 0.00 0.00 0.00 31 1009.8
20260508165522 62 228 2.6 7.0 0.00 0.00 0.00 32 1010.0
20260508164523 62 286 1.7 4.3 0.00 0.00 0.00 31 1010.2
20260508163523 61 287 1.7 5.2 0.00 0.00 0.00 32 1010.3
20260508162523 60 223 3.5 7.0 0.00 0.00 0.00 32 1010.3
20260508161522 60 255 2.6 7.8 0.00 0.00 0.00 34 1010.4
20260508160523 61 222 2.6 6.1 0.00 0.00 0.00 32 1010.4
20260508155523 59 284 0.9 6.1 0.00 0.00 0.00 33 1010.4
20260508154522 59 308 2.6 5.2 0.00 0.00 0.00 34 1010.5
20260508153523 58 318 2.6 6.1 0.00 0.00 0.00 34 1010.5
20260508152522 59 221 1.7 7.0 0.00 0.00 0.00 37 1010.5
20260508151523 59 219 2.6 7.8 0.00 0.00 0.00 40 1010.6
20260508150522 59 227 4.3 9.6 0.00 0.00 0.00 39 1010.7
20260508145523 58 317 1.7 5.2 0.00 0.00 0.00 36 1010.7
20260508144523 58 240 1.7 3.5 0.00 0.00 0.00 39 1010.7
20260508143522 57 258 1.7 7.8 0.00 0.00 0.00 39 1010.8
20260508142521 56 243 1.7 7.8 0.00 0.00 0.00 41 1010.9
20260508141522 56 222 1.7 6.1 0.00 0.00 0.00 47 1010.9
20260508140523 55 218 1.7 6.1 0.00 0.00 0.00 47 1010.9
20260508135543 54 208 1.7 5.2 0.00 0.00 0.00 51 1010.9
20260508134522 53 216 0.9 4.3 0.00 0.00 0.00 56 1010.9
20260508133522 52 228 1.7 4.3 0.00 0.00 0.00 59 1010.9
20260508132521 51 209 0.9 4.3 0.00 0.00 0.00 61 1011.0
20260508131523 50 237 1.7 5.2 0.00 0.00 0.00 62 1011.1
20260508130523 49 217 0.9 5.2 0.00 0.00 0.00 64 1011.2
20260508125523 49 211 1.7 3.5 0.00 0.00 0.00 65 1011.3
20260508124543 47 225 0.9 3.5 0.00 0.00 0.00 69 1011.2
20260508123522 46 224 0.0 2.6 0.00 0.00 0.00 73 1011.2
20260508122522 44 0.0 0.0 0.00 0.00 0.00 78 1011.2
20260508121522 41 0.0 0.0 0.00 0.00 0.00 81 1011.2
20260508120522 40 0.0 0.0 0.00 0.00 0.00 84 1011.0
20260508115523 38 0.0 0.0 0.00 0.00 0.00 86 1010.9
20260508114522 36 0.0 0.0 0.00 0.00 0.00 88 1010.9
20260508113522 35 0.0 0.0 0.00 0.00 0.00 89 1010.8
20260508112522 34 0.0 0.0 0.00 0.00 0.00 89 1010.8
20260508111522 33 0.0 0.0 0.00 0.00 0.00 88 1010.7
20260508110525 33 0.0 0.0 0.00 0.00 0.00 88 1010.7
20260508105603 33 0.0 0.0 0.00 0.00 0.00 88 1010.6
20260508104523 33 0.0 0.0 0.00 0.00 0.00 88 1010.6
20260508103522 33 0.0 0.0 0.00 0.00 0.00 87 1010.6
20260508102522 33 0.0 0.0 0.00 0.00 0.00 87 1010.7
20260508101523 34 0.0 0.0 0.00 0.00 0.00 87 1010.8
20260508100522 34 0.0 0.0 0.00 0.00 0.00 87 1010.9
20260508095541 34 0.0 0.0 0.00 0.00 0.00 86 1010.9
20260508094522 35 0.0 0.0 0.00 0.00 0.00 86 1010.9
20260508093521 35 0.0 0.0 0.00 0.00 0.00 85 1010.9
20260508092521 35 0.0 0.0 0.00 0.00 0.00 85 1011.1